Altus AFB, OK

3:40 AM CDT on August 17, 2017 (GMT -0500)
Altus Air Force Base

Weather History for KLTS - February, 2014

Change the Weather History Date:

Thursday, February 6, 2014

  Actual Average Record
Temperature  
Mean Temperature 12 °F -  
Max Temperature 16 °F 52 °F 82 °F (2017)
Min Temperature 8 °F 28 °F 8 °F (2014)
Degree Days  
Heating Degree Days 53    
Moisture  
Dew Point 5 °F    
Average Humidity 79    
Maximum Humidity 85    
Minimum Humidity 67    
Precipitation  
Precipitation 0.00 in - - ()
Snow  
Snow 0.00 in - - ()
Snow Depth 1.00 in    
Sea Level Pressure  
Sea Level Pressure 30.57 in    
Wind  
Wind Speed 15 mph (NNE)    
Max Wind Speed 20 mph    
Max Gust Speed 22 mph    
Visibility 7 miles    
Events Snow    
Averages and records for this station are not official NWS values.
T = Trace of Precipitation, MM = Missing Value Source: NWS Daily Summary

Daily Weather History Graph

Daily Weather History Graph

Search for Another Location

Airport or City:

Trip Planner

Search our weather history database for the weather conditions in past years. The results will help you decide how hot, cold, wet, or windy it might be!

Date:

Astronomy

Feb. 06, 2014 Rise Set
Actual Time 7:31 AM CST 6:11 PM CST
Civil Twilight 7:05 AM CST 6:37 PM CST
Nautical Twilight 6:35 AM CST 7:07 PM CST
Astronomical Twilight 6:05 AM CST 7:37 PM CST
Moon 11:45 AM CST (2/6) 12:48 AM CST (2/6)
Length of Visible Light 11h 32m
Length of Day
10h 40m
Waxing Crescent, 49% of the Moon is Illuminated
Feb 6
Waxing Crescent
Feb 6
First Quarter
Feb 14
Full
Feb 22
Last Quarter
Mar 1
New

Hourly Weather History & Observations

Time (CST) Temp. Windchill Dew Point Humidity Pressure Visibility Wind Dir Wind Speed Gust Speed Precip Events Conditions
12:13 AM 12.2 °F -3.7 °F 6.8 °F 79% 30.58 in 5.0 mi North 15.0 mph - N/A Snow Light Snow
12:20 AM 12.2 °F -5.3 °F 6.8 °F 79% 30.59 in 3.0 mi North 18.4 mph - N/A Snow Light Snow
12:25 AM 10.4 °F -7.2 °F 5.0 °F 79% 30.59 in 2.5 mi North 17.3 mph - N/A Snow Light Snow
12:30 AM 10.4 °F -7.7 °F 6.8 °F 85% 30.58 in 2.5 mi North 18.4 mph - N/A Snow Light Snow
12:31 AM 10.4 °F -8.2 °F 6.8 °F 85% 30.59 in 2.5 mi North 19.6 mph - N/A Snow Light Snow
12:36 AM 10.4 °F -7.7 °F 5.0 °F 79% 30.59 in 3.0 mi North 18.4 mph - N/A Snow Light Snow
12:41 AM 10.4 °F -6.6 °F 5.0 °F 79% 30.59 in 4.0 mi North 16.1 mph - N/A Snow Light Snow
12:51 AM 10.4 °F -7.2 °F 5.0 °F 79% 30.60 in 5.0 mi North 17.3 mph - N/A Snow Light Snow
12:58 AM 10.6 °F -5.8 °F 5.0 °F 78% 30.66 in 4.0 mi North 15.0 mph - 0.00 in Snow Light Snow
1:10 AM 10.4 °F -6.0 °F 5.0 °F 79% 30.59 in 3.0 mi NNE 15.0 mph - N/A Snow Light Snow
1:15 AM 10.4 °F -6.0 °F 5.0 °F 79% 30.58 in 3.0 mi NNE 15.0 mph - N/A Snow Light Snow
1:20 AM 10.4 °F -5.4 °F 6.8 °F 85% 30.58 in 2.5 mi NNE 13.8 mph - N/A Snow Light Snow
1:23 AM 10.4 °F -6.0 °F 6.8 °F 85% 30.58 in 2.5 mi North 15.0 mph - N/A Snow Light Snow
1:28 AM 10.4 °F -5.4 °F 6.8 °F 85% 30.58 in 3.0 mi North 13.8 mph - N/A Snow Light Snow
1:33 AM 10.4 °F -6.0 °F 6.8 °F 85% 30.59 in 3.0 mi NNE 15.0 mph - N/A Snow Light Snow
1:48 AM 10.4 °F -6.0 °F 6.8 °F 85% 30.58 in 5.0 mi NNE 15.0 mph - N/A Snow Light Snow
1:58 AM 10.2 °F -7.9 °F 5.7 °F 82% 30.66 in 5.0 mi NNE 18.4 mph - 0.00 in Snow Light Snow
2:03 AM 10.4 °F -7.2 °F 5.0 °F 79% 30.59 in 5.0 mi North 17.3 mph - N/A Snow Light Snow
2:28 AM 10.4 °F -5.4 °F 5.0 °F 79% 30.58 in 5.0 mi NNE 13.8 mph - N/A Snow Light Snow
2:33 AM 10.4 °F -4.8 °F 5.0 °F 79% 30.59 in 5.0 mi North 12.7 mph - N/A Snow Light Snow
2:43 AM 10.4 °F -6.6 °F 5.0 °F 79% 30.58 in 6.0 mi NNE 16.1 mph - N/A Snow Light Snow
2:56 AM 10.4 °F -6.0 °F 5.0 °F 79% 30.59 in 7.0 mi North 15.0 mph - N/A Snow Light Snow
2:58 AM 9.9 °F -6.7 °F 4.6 °F 79% 30.66 in 7.0 mi North 15.0 mph - 0.00 in Snow Light Snow
3:43 AM 10.4 °F -6.0 °F 3.2 °F 73% 30.58 in 10.0 mi NNE 15.0 mph - N/A Snow Light Snow
3:53 AM 10.4 °F -6.6 °F 5.0 °F 79% 30.58 in 9.0 mi North 16.1 mph - N/A Snow Light Snow
3:58 AM 9.5 °F -7.2 °F 4.3 °F 79% 30.66 in 10.0 mi North 15.0 mph - 0.00 in Snow Light Snow
4:00 AM 8.6 °F -8.3 °F 5.0 °F 85% 30.58 in 9.0 mi North 15.0 mph - N/A Snow Light Snow
4:10 AM 8.6 °F -8.9 °F 5.0 °F 85% 30.56 in 7.0 mi NNE 16.1 mph - N/A Snow Light Snow
4:15 AM 8.6 °F -7.7 °F 5.0 °F 85% 30.56 in 6.0 mi NNE 13.8 mph - N/A Snow Light Snow
4:30 AM 8.6 °F -8.3 °F 5.0 °F 85% 30.56 in 7.0 mi NNE 15.0 mph - N/A Snow Light Snow
4:35 AM 8.6 °F -7.0 °F 5.0 °F 85% 30.56 in 7.0 mi NNE 12.7 mph - N/A Snow Light Snow
4:40 AM 8.6 °F -7.7 °F 5.0 °F 85% 30.56 in 8.0 mi NNE 13.8 mph - N/A Snow Light Snow
4:58 AM 9.0 °F -9.0 °F 4.1 °F 81% 30.65 in 7.0 mi NNE 17.3 mph 21.9 mph 0.00 in Snow Light Snow
5:03 AM 8.6 °F -8.3 °F 3.2 °F 79% 30.56 in 8.0 mi NE 15.0 mph - N/A Snow Light Snow
5:23 AM 8.6 °F -8.9 °F 3.2 °F 79% 30.56 in 6.0 mi NNE 16.1 mph - N/A Snow Light Snow
5:27 AM 8.6 °F -8.9 °F 3.2 °F 79% 30.56 in 5.0 mi NNE 16.1 mph - N/A Snow Light Snow
5:32 AM 8.6 °F -8.3 °F 3.2 °F 79% 30.56 in 6.0 mi NNE 15.0 mph - N/A Snow Light Snow
5:58 AM 8.8 °F -8.7 °F 3.4 °F 79% 30.65 in 7.0 mi NNE 16.1 mph - 0.00 in Snow Light Snow
6:23 AM 8.6 °F -7.7 °F 3.2 °F 79% 30.57 in 4.0 mi NNE 13.8 mph - N/A Snow Light Snow
6:33 AM 8.6 °F -7.0 °F 3.2 °F 79% 30.57 in 5.0 mi NNE 12.7 mph - N/A Snow Light Snow
6:48 AM 8.6 °F -8.3 °F 3.2 °F 79% 30.57 in 8.0 mi North 15.0 mph - N/A Snow Light Snow
6:53 AM 8.6 °F -7.0 °F 3.2 °F 79% 30.57 in 8.0 mi North 12.7 mph - N/A Snow Light Snow
6:58 AM 8.4 °F -7.9 °F 3.6 °F 81% 30.65 in 7.0 mi NNE 13.8 mph - 0.00 in Snow Light Snow
7:03 AM 8.6 °F -7.7 °F 3.2 °F 79% 30.57 in 7.0 mi NNE 13.8 mph - N/A Snow Light Snow
7:13 AM 8.6 °F -8.3 °F 3.2 °F 79% 30.57 in 8.0 mi NNE 15.0 mph - N/A Snow Light Snow
7:48 AM 8.6 °F -7.0 °F 3.2 °F 79% 30.58 in 9.0 mi North 12.7 mph - N/A Snow Light Snow
7:52 AM 8.6 °F -7.0 °F 3.2 °F 79% 30.58 in 10.0 mi NNE 12.7 mph - N/A Snow Light Snow
7:56 AM 8.6 °F -8.3 °F 3.2 °F 79% 30.58 in 10.0 mi NNE 15.0 mph - N/A Snow Light Snow
7:58 AM 8.2 °F -8.8 °F 3.0 °F 79% 30.66 in 10.0 mi NNE 15.0 mph - 0.00 in Snow Light Snow
8:03 AM 8.6 °F -8.3 °F 3.2 °F 79% 30.58 in 10.0 mi NNE 15.0 mph - N/A Snow Light Snow
8:08 AM 8.6 °F -5.5 °F 3.2 °F 79% 30.58 in 10.0 mi NNE 10.4 mph - N/A Snow Light Snow
8:23 AM 8.6 °F -8.3 °F 3.2 °F 79% 30.58 in 10.0 mi NNE 15.0 mph - N/A   Overcast
8:24 AM 8.6 °F -8.3 °F 3.2 °F 79% 30.58 in 10.0 mi NNE 15.0 mph - N/A   Overcast
8:36 AM 8.6 °F -7.7 °F 3.2 °F 79% 30.58 in 10.0 mi NNE 13.8 mph - N/A   Overcast
8:43 AM 8.6 °F -7.0 °F 3.2 °F 79% 30.58 in 10.0 mi NNE 12.7 mph - N/A   Overcast
8:58 AM 9.0 °F -7.3 °F 2.3 °F 74% 30.67 in 10.0 mi NNE 13.8 mph - 0.00 in   Overcast
9:52 AM 10.4 °F -5.4 °F 3.2 °F 73% 30.59 in 10.0 mi NNE 13.8 mph - N/A   Overcast
9:58 AM 9.7 °F -5.7 °F 2.8 °F 74% 30.67 in 10.0 mi NNE 12.7 mph - N/A   Overcast
10:58 AM 10.4 °F -4.8 °F 3.0 °F 72% 30.66 in 10.0 mi NE 12.7 mph - 0.00 in   Overcast
11:03 AM 10.4 °F -4.8 °F 3.2 °F 73% 30.58 in 10.0 mi NNE 12.7 mph - N/A   Overcast
11:24 AM 12.2 °F -2.5 °F 3.2 °F 67% 30.58 in 10.0 mi NNE 12.7 mph - N/A   Scattered Clouds
11:58 AM 12.7 °F -0.4 °F 4.3 °F 69% 30.64 in 10.0 mi NNE 10.4 mph - N/A   Scattered Clouds
12:34 PM 14.0 °F 0.5 °F 5.0 °F 67% 30.54 in 10.0 mi NNE 11.5 mph - N/A   Scattered Clouds
12:58 PM 14.0 °F 1.2 °F 5.7 °F 70% 30.60 in 10.0 mi NE 10.4 mph - N/A   Scattered Clouds
1:58 PM 15.8 °F 2.7 °F 6.8 °F 68% 30.54 in 10.0 mi NE 11.5 mph - N/A   Scattered Clouds
2:58 PM 15.8 °F 5.1 °F 7.9 °F 71% 30.51 in 10.0 mi NNE 8.1 mph - N/A   Scattered Clouds
3:58 PM 16.3 °F 5.7 °F 7.7 °F 69% 30.52 in 10.0 mi NNE 8.1 mph - N/A   Mostly Cloudy
4:58 PM 16.2 °F 6.5 °F 8.6 °F 72% 30.50 in 10.0 mi NE 6.9 mph - N/A   Overcast
5:58 PM 15.6 °F 4.9 °F 9.1 °F 76% 30.49 in 10.0 mi NNE 8.1 mph - N/A   Overcast
6:58 PM 15.1 °F 2.5 °F 8.8 °F 76% 30.49 in 10.0 mi NNE 10.4 mph - N/A   Overcast
7:58 PM 15.1 °F 1.8 °F 9.1 °F 77% 30.49 in 10.0 mi NE 11.5 mph - N/A   Overcast
9:58 PM 14.7 °F 3.8 °F 9.3 °F 79% 30.49 in 10.0 mi NE 8.1 mph - N/A   Overcast
10:03 PM 14.0 °F 2.9 °F 8.6 °F 79% 30.41 in 10.0 mi NE 8.1 mph - N/A   Overcast
10:43 PM 15.8 °F 5.1 °F 10.4 °F 79% 30.40 in 10.0 mi ENE 8.1 mph - N/A   Overcast
10:58 PM 15.1 °F 4.2 °F 10.0 °F 80% 30.45 in 10.0 mi NE 8.1 mph - N/A   Overcast
11:58 PM 15.3 °F 7.9 °F 10.2 °F 80% 30.45 in 10.0 mi NNE 4.6 mph - N/A   Overcast